• In Italy
  • List of Countries
  • For 7 days
  • Water Temperature
  • Satellite Maps
  • Weather Map
  • Weather Widgets
  • user-avatar
    Login

    Hourly Weather Kalgoorlie

    Today, 19 February, Monday

    Time Temperature Precipitation Wind Pressure Humidity
    00:00 +32°C° 0 mm 6 mps 723 mmHg 48%
    01:00 +32°C° 0 mm 6 mps 723 mmHg 50%
    02:00 +30°C° 0 mm 6 mps 723 mmHg 53%
    03:00 +29°C° 0 mm 5 mps 723 mmHg 55%
    04:00 +29°C° 0 mm 4 mps 723 mmHg 58%
    05:00 +28°C° 0 mm 3 mps 723 mmHg 60%
    06:00 +29°C° 0 mm 3 mps 723 mmHg 59%
    07:00 +30°C° 0 mm 4 mps 723 mmHg 57%
    08:00 +29°C° 0 mm 6 mps 724 mmHg 65%
    09:00 +29°C° 0.4 mm 5 mps 723 mmHg 62%
    10:00 +30°C° 0.4 mm 4 mps 723 mmHg 59%
    11:00 +31°C° 0.4 mm 3 mps 723 mmHg 56%
    12:00 +33°C° 1.6 mm 3 mps 723 mmHg 54%
    13:00 +32°C° 1.6 mm 2 mps 722 mmHg 52%
    14:00 +34°C° 1.6 mm 2 mps 722 mmHg 50%
    15:00 +33°C° 0.7 mm 3 mps 722 mmHg 51%
    16:00 +33°C° 0.7 mm 3 mps 722 mmHg 51%
    17:00 +33°C° 0.7 mm 4 mps 722 mmHg 52%
    18:00 +32°C° 1 mm 4 mps 723 mmHg 57%
    19:00 +30°C° 1 mm 4 mps 723 mmHg 61%
    20:00 +29°C° 1 mm 5 mps 723 mmHg 66%
    21:00 +28°C° 0.7 mm 5 mps 724 mmHg 70%
    22:00 +27°C° 0.7 mm 6 mps 724 mmHg 73%
    23:00 +26°C° 0.7 mm 6 mps 724 mmHg 77%

    Tomorrow, 20 February, Tuesday

    Time Temperature Precipitation Wind Pressure Humidity
    00:00 +24°C° 0.2 mm 7 mps 724 mmHg 78%
    01:00 +24°C° 0.2 mm 8 mps 724 mmHg 79%
    02:00 +23°C° 0.2 mm 9 mps 724 mmHg 80%
    03:00 +22°C° 0 mm 9 mps 724 mmHg 80%
    04:00 +22°C° 0 mm 9 mps 725 mmHg 80%
    05:00 +21°C° 0 mm 9 mps 725 mmHg 80%
    06:00 +22°C° 0 mm 9 mps 725 mmHg 80%
    07:00 +22°C° 0 mm 9 mps 725 mmHg 79%
    08:00 +22°C° 0 mm 9 mps 725 mmHg 79%
    09:00 +22°C° 0 mm 9 mps 725 mmHg 78%
    10:00 +22°C° 0 mm 9 mps 725 mmHg 76%
    11:00 +22°C° 0 mm 9 mps 725 mmHg 75%
    12:00 +23°C° 0 mm 9 mps 725 mmHg 72%
    13:00 +24°C° 0 mm 9 mps 724 mmHg 69%
    14:00 +26°C° 0 mm 9 mps 724 mmHg 65%
    15:00 +26°C° 0 mm 9 mps 724 mmHg 65%
    16:00 +26°C° 0 mm 9 mps 724 mmHg 65%
    17:00 +26°C° 0 mm 9 mps 724 mmHg 65%
    18:00 +24°C° 0.1 mm 9 mps 724 mmHg 67%
    19:00 +24°C° 0.1 mm 9 mps 725 mmHg 69%
    20:00 +23°C° 0.1 mm 9 mps 725 mmHg 71%
    21:00 +22°C° 0 mm 8 mps 725 mmHg 73%
    22:00 +22°C° 0 mm 8 mps 725 mmHg 75%
    23:00 +21°C° 0 mm 8 mps 725 mmHg 77%

    Day after tomorrow, 21 February, Wednesday

    Time Temperature Precipitation Wind Pressure Humidity
    00:00 +21°C° 0 mm 7 mps 724 mmHg 79%
    01:00 +21°C° 0 mm 7 mps 724 mmHg 80%
    02:00 +21°C° 0 mm 7 mps 724 mmHg 81%
    03:00 +21°C° 0.2 mm 7 mps 724 mmHg 82%
    04:00 +21°C° 0.2 mm 7 mps 723 mmHg 83%
    05:00 +21°C° 0.2 mm 7 mps 723 mmHg 84%
    06:00 +21°C° 0.1 mm 7 mps 724 mmHg 83%
    07:00 +21°C° 0.1 mm 7 mps 724 mmHg 83%
    08:00 +22°C° 0.1 mm 7 mps 724 mmHg 82%
    09:00 +22°C° 0 mm 7 mps 724 mmHg 80%
    10:00 +23°C° 0 mm 6 mps 724 mmHg 78%
    11:00 +23°C° 0 mm 6 mps 723 mmHg 76%
    12:00 +24°C° 0 mm 6 mps 723 mmHg 73%
    13:00 +26°C° 0 mm 6 mps 723 mmHg 69%
    14:00 +27°C° 0 mm 6 mps 723 mmHg 65%
    15:00 +27°C° 0 mm 5 mps 723 mmHg 65%
    16:00 +27°C° 0 mm 5 mps 723 mmHg 65%
    17:00 +27°C° 0 mm 5 mps 723 mmHg 65%
    18:00 +27°C° 0.1 mm 5 mps 723 mmHg 68%
    19:00 +26°C° 0.1 mm 4 mps 724 mmHg 70%
    20:00 +25°C° 0.1 mm 4 mps 724 mmHg 73%
    21:00 +25°C° 0 mm 4 mps 724 mmHg 75%
    22:00 +25°C° 0 mm 3 mps 724 mmHg 77%
    23:00 +24°C° 0 mm 3 mps 724 mmHg 79%

    22 February, Thursday

    Time Temperature Precipitation Wind Pressure Humidity
    00:00 +24°C° 0 mm 3 mps 724 mmHg 81%
    01:00 +23°C° 0 mm 2 mps 724 mmHg 83%
    02:00 +23°C° 0 mm 2 mps 724 mmHg 84%
    03:00 +23°C° 0 mm 2 mps 724 mmHg 85%
    04:00 +22°C° 0 mm 1 mps 724 mmHg 87%
    05:00 +22°C° 0 mm 1 mps 725 mmHg 88%
    06:00 +23°C° 0 mm 1 mps 725 mmHg 84%
    07:00 +24°C° 0 mm 2 mps 725 mmHg 80%
    08:00 +24°C° 0 mm 2 mps 726 mmHg 77%
    09:00 +26°C° 0 mm 1 mps 726 mmHg 69%
    10:00 +27°C° 0 mm 1 mps 726 mmHg 62%
    11:00 +27°C° 0 mm 0 mps 726 mmHg 54%
    12:00 +28°C° 0 mm 0 mps 725 mmHg 49%
    13:00 +31°C° 0 mm 1 mps 725 mmHg 45%
    14:00 +32°C° 0 mm 1 mps 724 mmHg 40%
    15:00 +32°C° 0 mm 1 mps 724 mmHg 37%
    16:00 +33°C° 0 mm 1 mps 724 mmHg 35%
    17:00 +33°C° 0 mm 1 mps 724 mmHg 32%
    18:00 +34°C° 0 mm 2 mps 724 mmHg 34%
    19:00 +33°C° 0 mm 3 mps 725 mmHg 36%
    20:00 +31°C° 0 mm 3 mps 725 mmHg 38%
    21:00 +32°C° 0 mm 4 mps 725 mmHg 42%
    22:00 +30°C° 0 mm 4 mps 725 mmHg 45%
    23:00 +30°C° 0 mm 5 mps 725 mmHg 49%

    23 February, Friday

    Time Temperature Precipitation Wind Pressure Humidity
    00:00 +29°C° 0 mm 5 mps 725 mmHg 51%
    01:00 +29°C° 0 mm 4 mps 724 mmHg 52%
    02:00 +28°C° 0 mm 4 mps 724 mmHg 54%
    03:00 +28°C° 0 mm 4 mps 724 mmHg 56%
    04:00 +27°C° 0 mm 4 mps 724 mmHg 58%
    05:00 +27°C° 0 mm 4 mps 724 mmHg 60%
    06:00 +28°C° 0 mm 4 mps 725 mmHg 57%
    07:00 +29°C° 0 mm 5 mps 725 mmHg 55%
    08:00 +30°C° 0 mm 6 mps 726 mmHg 53%
    09:00 +32°C° 0 mm 6 mps 726 mmHg 47%
    10:00 +33°C° 0 mm 6 mps 726 mmHg 42%
    11:00 +35°C° 0 mm 5 mps 726 mmHg 36%
    12:00 +35°C° 0.1 mm 5 mps 726 mmHg 35%
    13:00 +35°C° 0.1 mm 6 mps 725 mmHg 34%
    14:00 +35°C° 0.1 mm 6 mps 725 mmHg 33%
    15:00 +34°C° 0.2 mm 7 mps 725 mmHg 39%
    16:00 +33°C° 0.2 mm 8 mps 726 mmHg 45%
    17:00 +32°C° 0.2 mm 9 mps 726 mmHg 51%
    18:00 +28°C° 0.3 mm 9 mps 727 mmHg 57%
    19:00 +26°C° 0.3 mm 10 mps 727 mmHg 63%
    20:00 +23°C° 0.3 mm 10 mps 728 mmHg 69%
    21:00 +23°C° 0.3 mm 10 mps 729 mmHg 71%
    22:00 +22°C° 0.3 mm 10 mps 729 mmHg 72%
    23:00 +21°C° 0.3 mm 10 mps 730 mmHg 74%

    24 February, Saturday

    Time Temperature Precipitation Wind Pressure Humidity
    00:00 +21°C° 0.4 mm 9 mps 730 mmHg 76%
    01:00 +19°C° 0.4 mm 9 mps 730 mmHg 77%
    02:00 +19°C° 0.4 mm 9 mps 730 mmHg 79%
    03:00 +18°C° 1 mm 9 mps 730 mmHg 80%
    04:00 +18°C° 1 mm 9 mps 730 mmHg 80%
    05:00 +17°C° 1 mm 9 mps 731 mmHg 80%
    06:00 +17°C° 0.1 mm 9 mps 731 mmHg 78%
    07:00 +17°C° 0.1 mm 9 mps 732 mmHg 76%
    08:00 +17°C° 0.1 mm 9 mps 732 mmHg 73%
    09:00 +18°C° 0 mm 9 mps 732 mmHg 69%
    10:00 +19°C° 0 mm 9 mps 732 mmHg 65%
    11:00 +21°C° 0 mm 9 mps 732 mmHg 61%
    12:00 +21°C° 0.3 mm 8 mps 732 mmHg 63%
    13:00 +21°C° 0.3 mm 8 mps 731 mmHg 65%
    14:00 +21°C° 0.3 mm 7 mps 731 mmHg 66%
    15:00 +21°C° 0.2 mm 7 mps 731 mmHg 67%
    16:00 +21°C° 0.2 mm 7 mps 731 mmHg 67%
    17:00 +21°C° 0.2 mm 8 mps 731 mmHg 67%
    18:00 +21°C° 0.2 mm 8 mps 731 mmHg 68%
    19:00 +21°C° 0.2 mm 8 mps 732 mmHg 68%
    20:00 +20°C° 0.2 mm 8 mps 732 mmHg 68%
    21:00 +20°C° 1.1 mm 8 mps 732 mmHg 70%
    22:00 +18°C° 1.1 mm 9 mps 732 mmHg 71%
    23:00 +18°C° 1.1 mm 9 mps 732 mmHg 73%
    Show more